軌道要素
Epoch 2016 Sept. 9.0 TT = JDT 2457640.5
T 2016 Sept. 11.39764 TT MPCW
q 2.2239903 (2000.0) P Q
n 0.14353556 Peri. 98.44984 +0.97950827 +0.01181371
a 3.6126818 Node 261.04737 -0.08517832 +0.92890445
e 0.3843935 Incl. 11.74386 +0.18250535 +0.37013100
P 6.87
From 137 observations 2002 July 12-2018 Jan. 24, mean residual 0".5.
|